1323216033714,2.98172
1323216093714,2.97794
1323216153714,2.98965
1323216213714,2.97692
1323216273714,2.98067
1323216333714,2.99487
1323216393714,2.98719
1323216453714,2.99549
1323216513714,2.98080
1323216573714,2.97902
1323216633714,2.98346
1323216693714,2.98121
1323216753714,2.99243
1323216813714,2.97409
1323216873714,2.96528
1323216933714,2.97406
1323216993714,2.99320
1323217053714,2.98726
1323217113714,2.97484
1323217173714,3.00024
1323217233714,2.98015
1323217293714,2.98076
1323217353714,2.97602
1323217413714,2.97614
1323217473714,2.97730
1323217533714,2.99601
1323217593714,2.99526
1323217653714,2.97688
1323217713714,2.98399
1323217773714,2.98543
1323217833714,2.99092
1323217893714,2.98842
1323217953714,2.98691
1323218013714,2.97225
1323218073714,2.98233
1323218133714,2.98599
1323218193714,2.97900
1323218253714,2.98669
1323218313714,2.98041
1323218373714,2.96698
1323218433714,2.97206
1323218493714,2.96636
1323218553714,2.98697
1323218613714,2.98225
1323218673714,2.97699
1323218733714,2.98787
1323218793714,2.98887
1323218853714,2.97650
1323218913714,2.97946
1323218973714,2.97605
1323219033714,2.97202
1323219093714,2.97644
1323219153714,2.96895
1323219213714,2.99171
1323219273714,2.95241
1323219333714,2.97202
1323219393714,2.97300
1323219453714,2.97141
1323219513714,2.97135
1323219573714,2.98867
1323219633724,2.98472
1323219693724,2.97640
1323219753724,2.95789
1323219813724,2.96060
1323219873724,2.98308
1323219933724,2.96766
1323219993724,2.96522
1323220053724,2.98294
1323220113724,2.97731
1323220173724,2.99444
1323220233724,3.01112
1323220293724,2.98255
1323220353724,2.97108
1323220413724,2.96802
1323220473724,2.98553
1323220533724,2.98143
1323220593724,2.96995
1323220653724,2.97880
1323220713724,2.97786
1323220773724,2.97380
1323220833724,2.98370
1323220893724,2.97804
1323220953724,2.99729
1323221013724,2.96696
1323221073724,2.97097
1323221133724,2.94970
1323221193724,2.98963
1323221253724,2.97815
1323221313724,2.95968
1323221373724,3.02628
1323221433724,3.00372
1323221493724,2.97810
1323221553724,2.96270
1323221613724,2.97998
1323221673724,2.98028
1323221733724,2.97408
1323221793724,2.97802
1323221853724,2.97607
1323221913724,2.94786
1323221973724,2.99546
1323222033724,2.98210
1323222093724,2.98054
1323222153724,2.99258
1323222213724,2.98855
1323222273724,2.96497
1323222333724,2.98142
1323222393724,2.97902
1323222453724,2.98342
1323222513724,2.95742
1323222573724,2.97685
1323222633724,2.98890
1323222693724,2.97404
1323222753724,2.99396
1323222813724,2.99334
1323222873724,2.99866
1323222933724,2.97759
1323222993724,2.99991
1323223053724,2.98934
1323223113724,2.97164
1323223173724,2.99854
1323223233734,2.96749
1323223293734,2.95726
1323223353734,2.98002
1323223413734,3.02717
1323223473734,2.98999
1323223533734,2.97127
1323223593734,2.97681
1323223653734,2.98381
1323223713734,2.96402
1323223773734,2.96685
1323223833734,3.00422
1323223893734,2.98223
1323223953734,2.96043
1323224013734,2.97204
1323224073734,2.97335
1323224133734,2.97127
1323224193734,2.97847
1323224253734,2.98943
1323224313734,2.94528
1323224373734,2.98681
1323224433734,2.99730
1323224493734,2.98020
1323224553734,2.98891
1323224613734,2.96243
1323224673734,2.98310
1323224733734,2.97989
1323224793734,2.97571
1323224853734,2.97558
1323224913734,2.97159
1323224973734,2.95783
1323225033734,2.99844
1323225093734,2.98940
1323225153734,2.97978
1323225213734,2.96935
1323225273734,2.98064
1323225333734,2.98990
1323225393734,2.98034
1323225453734,2.97359
1323225513734,2.97685
1323225573734,2.98478
1323225633734,2.96703
1323225693734,2.96932
1323225753734,2.98163
1323225813734,2.98607
1323225873734,2.98950
1323225933734,2.98872
1323225993734,2.97781
1323226053734,2.99745
1323226113734,2.97334
1323226173734,2.97277
1323226233734,2.98172
1323226293734,2.98225
1323226353734,2.97635
1323226413734,3.00342
1323226473734,2.97886
1323226533734,2.97466
1323226593734,2.96599
1323226653734,2.97201
1323226713734,2.97990
1323226773734,2.97424
1323226833744,2.97853
1323226893744,2.96988
1323226953744,2.98721
1323227013744,2.94348
1323227073744,3.00028
1323227133744,3.02705
1323227193744,2.97817
1323227253744,2.98500
1323227313744,2.97432
1323227373744,2.97659
1323227433744,2.99061
1323227493744,2.97822
1323227553744,2.99054
1323227613744,2.95989
1323227673744,2.95527
1323227733744,2.99263
1323227793744,2.98457
1323227853744,2.99649
1323227913744,2.97154
1323227973744,2.97932
1323228033744,2.97026
1323228093744,2.98899
1323228153744,2.97176
1323228213744,2.98645
1323228273744,2.96803
1323228333744,2.98412
1323228393744,2.98762
1323228453744,2.95596
1323228513744,2.98191
1323228573744,2.96267
1323228633744,2.98849
1323228693744,2.97674
1323228753744,2.97825
1323228813744,2.98211
1323228873744,2.98022
1323228933744,2.98811
1323228993744,2.98286
1323229053744,2.98924
1323229113744,2.98069
1323229173744,2.98346
1323229233744,2.97418
1323229293744,2.95814
1323229353744,2.97592
1323229413744,2.97733
1323229473744,2.99794
1323229533744,2.96706
1323229593744,2.98317
1323229653744,2.98345
1323229713744,2.99884
1323229773744,2.99187
1323229833744,2.97574
1323229893744,2.99740
1323229953744,2.95735
1323230013744,2.99226
1323230073744,2.99123
1323230133744,2.99596
1323230193744,3.00480
1323230253744,2.97852
1323230313744,2.98546
1323230373744,2.98006
1323230433754,2.98315
1323230493754,2.97542
1323230553754,2.99398
1323230613754,2.97572
1323230673754,2.99179
1323230733754,2.99410
1323230793754,2.98922
1323230853754,2.98648
1323230913754,2.99626
1323230973754,2.97180
1323231033754,2.98031
1323231093754,3.00316
1323231153754,2.97722
1323231213754,2.97912
1323231273754,2.98463
1323231333754,2.98622
1323231393754,2.99647
1323231453754,2.98780
1323231513754,2.98198
1323231573754,2.97826
1323231633754,3.00925
1323231693754,2.98295
1323231753754,3.00041
1323231813754,2.98057
1323231873754,2.99962
1323231933754,2.97144
1323231993754,2.98680
1323232053754,2.99285
1323232113754,2.96828
1323232173754,3.03659
1323232233754,2.98063
1323232293754,3.01540
1323232353754,2.98965
1323232413754,2.99466
1323232473754,2.98660
1323232533754,2.99536
1323232593754,3.00491
1323232653754,3.00825
1323232713754,3.00067
1323232773754,3.00151
1323232833754,3.00715
1323232893754,2.97832
1323232953754,2.98955
1323233013754,2.99494
1323233073754,2.99798
1323233133754,3.01566
1323233193754,3.00901
1323233253754,2.98461
1323233313754,3.01396
1323233373754,2.99933
1323233433754,2.99038
1323233493754,2.99477
1323233553754,3.00135
1323233613754,3.00963
1323233673754,3.00032
1323233733754,2.99106
1323233793754,2.99060
1323233853754,2.97756
1323233913754,2.99262
1323233973754,3.00675
1323234033764,2.97599
1323234093764,2.98933
1323234153764,2.99365
1323234213764,2.98536
1323234273764,2.99455
1323234333764,2.98138
1323234393764,2.97652
1323234453764,2.99556
1323234513764,2.99019
1323234573764,2.99121
1323234633764,2.98721
1323234693764,2.97412
1323234753764,3.01293
1323234813764,2.97579
1323234873764,3.00300
1323234933764,2.98997
1323234993764,2.99728
1323235053764,2.98365
1323235113764,3.00577
1323235173764,2.99726
1323235233764,3.00973
1323235293764,2.98422
1323235353764,2.97739
1323235413764,2.99896
1323235473764,2.97736
1323235533764,2.98613
1323235593764,2.98648
1323235653764,2.97714
1323235713764,3.01925
1323235773764,3.00734
1323235833764,2.99155
1323235893764,2.97826
1323235953764,2.96654
1323236013764,2.97769
1323236073764,2.98646
1323236133764,2.99868
1323236193764,2.96986
1323236253764,3.00452
1323236313764,3.00356
1323236373764,2.99689
1323236433764,2.99196
1323236493764,3.00280
1323236553764,2.98354
1323236613764,2.98580
1323236673764,2.99030
1323236733764,2.97730
1323236793764,2.98395
1323236853764,2.98456
1323236913764,2.98395
1323236973764,2.98083
1323237033764,2.97386
1323237093764,2.96939
1323237153764,2.97037
1323237213764,2.99336
1323237273764,3.01013
1323237333764,3.00700
1323237393764,2.98091
1323237453764,2.91213
1323237513764,2.98864
1323237573764,2.99209
1323237633774,2.99692
1323237693774,2.98762
1323237753774,2.99759
1323237813774,3.01282
1323237873774,2.99536
1323237933774,2.98740
1323237993774,3.00822
1323238053774,2.99923
1323238113774,3.01280
1323238173774,3.00623
1323238233774,3.01044
1323238293774,3.00362
1323238353774,3.01175
1323238413774,3.03118
1323238473774,3.02619
1323238533774,3.04325
1323238593774,3.03176
1323238653774,3.03364
1323238713774,3.03166
1323238773774,3.01462
1323238833774,3.02389
1323238893774,2.99187
1323238953774,3.02073
1323239013774,3.03768
1323239073774,3.02638
1323239133774,3.03565
1323239193774,3.04322
1323239253774,3.04142
1323239313774,3.04250
1323239373774,3.04509
1323239433774,3.06845
1323239493774,3.06083
1323239553774,3.05317
1323239613774,3.05425
1323239673774,3.07734
1323239733774,3.03671
1323239793774,3.06504
1323239853774,3.02621
1323239913774,3.07044
1323239973774,3.04358
1323240033774,3.05744
1323240093774,3.04877
1323240153774,3.05952
1323240213774,3.03220
1323240273774,3.05996
1323240333774,3.08254
1323240393774,3.06193
1323240453774,3.05385
1323240513774,3.05188
1323240573774,3.04305
1323240633774,3.04842
1323240693774,3.07055
1323240753774,3.05788
1323240813774,3.06375
1323240873774,3.07183
1323240933774,3.05160
1323240993774,3.06977
1323241053774,2.87607
1323241113774,3.05764
1323241173774,3.08051
1323241233785,3.05215
1323241293785,3.04608
1323241353785,3.05482
1323241413785,3.04743
1323241473785,3.05987
1323241533785,3.05436
1323241593785,3.04851
1323241653785,3.05188
1323241713785,3.06122
1323241773785,3.05803
1323241833785,3.03488
1323241893785,3.04289
1323241953785,3.05693
1323242013785,3.05095
1323242073785,3.03442
1323242133785,3.05175
1323242193785,3.03965
1323242253785,3.04855
1323242313785,3.03881
1323242373785,3.04770
1323242433785,3.04014
1323242493785,3.04103
1323242553785,3.02794
1323242613785,3.03640
1323242673785,3.02279
1323242733785,3.03422
1323242793785,3.03481
1323242853785,3.04168
1323242913785,3.04027
1323242973785,3.02567
1323243033785,3.02616
1323243093785,3.03482
1323243153785,3.01350
1323243213785,3.02892
1323243273785,3.03045
1323243333785,3.04880
1323243393785,3.03933
1323243453785,3.02299
1323243513785,3.02973
1323243573785,3.03959
1323243633785,3.05428
1323243693785,3.03510
1323243753785,3.03512
1323243813785,3.02695
1323243873785,3.01235
1323243933785,3.04421
1323243993785,3.03663
1323244053785,3.04205
1323244113785,3.02768
1323244173785,3.05353
1323244233785,3.02675
1323244293785,3.02391
1323244353785,3.02069
1323244413785,3.05184
1323244473785,3.03401
1323244533785,3.04472
1323244593785,3.02885
1323244653785,3.02641
1323244713785,3.01585
1323244773785,3.02966
1323244833795,3.02920
1323244893795,3.06427
1323244953795,3.03724
1323245013795,3.06356
1323245073795,3.04117
1323245133795,3.20039
1323245193795,3.03911
1323245253795,3.03529
1323245313795,3.02246
1323245373795,3.02911
1323245433795,3.02501
1323245493795,3.05069
1323245553795,3.02615
1323245613795,3.02283
1323245673795,3.02812
1323245733795,3.02273
1323245793795,3.04006
1323245853795,3.02977
1323245913795,3.04622
1323245973795,3.01695
1323246033795,3.03280
1323246093795,3.01751
1323246153795,3.04375
1323246213795,3.02734
1323246273795,3.03729
1323246333795,3.02732
1323246393795,3.04749
1323246453795,3.03011
1323246513795,3.02841
1323246573795,3.01026
1323246633795,3.04097
1323246693795,3.05936
1323246753795,3.04157
1323246813795,3.02600
1323246873795,3.02019
1323246933795,3.03827
1323246993795,3.03051
1323247053795,3.02900
1323247113795,3.05101
1323247173795,3.04824
1323247233795,3.03165
1323247293795,3.03692
1323247353795,3.02759
1323247413795,3.04259
1323247473795,3.02243
1323247533795,3.02799
1323247593795,3.03225
1323247653795,3.02660
1323247713795,3.04354
1323247773795,3.02634
1323247833795,3.03438
1323247893795,3.02315
1323247953795,3.04580
1323248013795,3.04226
1323248073795,3.04668
1323248133795,3.00451
1323248193795,3.02739
1323248253795,3.03548
1323248313795,3.01931
1323248373795,3.03887
1323248433806,3.03060
1323248493806,3.01428
1323248553806,3.03350
1323248613806,3.06494
1323248673806,3.03806
1323248733806,3.05301
1323248793806,3.04717
1323248853806,3.04002
1323248913806,3.02800
1323248973806,3.05016
1323249033806,3.02441
1323249093806,3.02344
1323249153806,3.01862
1323249213806,3.04589
1323249273806,3.05572
1323249333806,2.77771
1323249393806,3.01533
1323249453806,3.03736
1323249513806,3.04548
1323249573806,3.04262
1323249633806,3.03289
1323249693806,3.03071
1323249753806,3.04605
1323249813806,3.03530
1323249873806,3.04051
1323249933806,3.03386
1323249993806,3.06349
1323250053806,3.03374
1323250113806,3.03392
1323250173806,2.88030
1323250233806,3.04805
1323250293806,3.02032
1323250353806,3.01582
1323250413806,3.04225
1323250473806,3.03852
1323250533806,3.04434
1323250593806,3.04477
1323250653806,3.03083
1323250713806,3.04690
1323250773806,3.04034
1323250833806,3.02724
1323250893806,3.02053
1323250953806,3.04165
1323251013806,3.03163
1323251073806,3.02657
1323251133806,3.05135
1323251193806,3.04653
1323251253806,3.01458
1323251313806,3.03640
1323251373806,3.04623
1323251433806,3.04983
1323251493806,3.04419
1323251553806,3.03446
1323251613806,3.04625
1323251673806,3.03478
1323251733806,3.02770
1323251793806,3.03041
1323251853806,3.00846
1323251913806,3.03647
1323251973806,3.04599
1323252033818,3.04936
1323252093818,3.02218
1323252153818,3.01801
1323252213818,3.02675
1323252273818,3.06459
1323252333818,3.03896
1323252393818,3.01398
1323252453818,3.01770
1323252513818,2.99714
1323252573818,3.03660
1323252633818,3.02172
1323252693818,3.02220
1323252753818,3.03658
1323252813818,3.02525
1323252873818,3.02337
1323252933818,3.02085
1323252993818,3.03391
1323253053818,3.01580
1323253113818,3.04851
1323253173818,3.04668
1323253233818,3.03920
1323253293818,3.01911
1323253353818,3.01424
1323253413818,3.01283
1323253473818,3.01806
1323253533818,3.05213
1323253593818,3.04405
1323253653818,3.03051
1323253713818,3.03008
1323253773818,3.02812
1323253833818,3.02073
1323253893818,3.03506
1323253953818,3.05233
1323254013818,3.03374
1323254073818,3.02606
1323254133818,3.02822
1323254193818,3.04801
1323254253818,3.01710
1323254313818,3.03368
1323254373818,3.04748
1323254433818,3.01536
1323254493818,3.04132
1323254553818,3.03286
1323254613818,3.03159
1323254673818,3.03587
1323254733818,3.05126
1323254793818,3.00865
1323254853818,3.03442
1323254913818,3.03419
1323254973818,3.03185
1323255033818,3.04132
1323255093818,3.02953
1323255153818,3.03619
1323255213818,3.05153
1323255273818,3.02747
1323255333818,3.03051
1323255393818,3.03553
1323255453818,3.01977
1323255513818,3.03578
1323255573818,3.02652
1323255633829,3.02999
1323255693829,3.04797
1323255753829,3.04529
1323255813829,3.03688
1323255873829,3.03224
1323255933829,3.04424
1323255993829,3.03984
1323256053829,3.03145
1323256113829,3.04923
1323256173829,3.04914
1323256233829,3.02840
1323256293829,3.02685
1323256353829,3.03281
1323256413829,3.04409
1323256473829,3.03684
1323256533829,3.03272
1323256593829,3.05422
1323256653829,3.01721
1323256713829,3.05309
1323256773829,3.03208
1323256833829,3.02397
1323256893829,3.02818
1323256953829,3.03814
1323257013829,3.04080
1323257073829,3.03189
1323257133829,3.00743
1323257193829,3.02291
1323257253829,3.01267
1323257313829,3.03594
1323257373829,3.02272
1323257433829,3.02709
1323257493829,3.02560
1323257553829,3.01986
1323257613829,3.03565
1323257673829,3.01641
1323257733829,3.02386
1323257793829,3.02795
1323257853829,3.02589
1323257913829,3.01815
1323257973829,3.03241
1323258033829,3.01477
1323258093829,3.01489
1323258153829,3.03186
1323258213829,3.03140
1323258273829,3.01349
1323258333829,3.02685
1323258393829,3.03323
1323258453829,3.03301
1323258513829,3.02511
1323258573829,3.01750
1323258633829,3.01991
1323258693829,3.02105
1323258753829,3.02469
1323258813829,3.01214
1323258873829,3.04478
1323258933829,3.00093
1323258993829,3.02144
1323259053829,3.01690
1323259113829,2.99837
1323259173829,3.01240
1323259233841,3.05807
1323259293841,3.04006
1323259353841,3.01645
1323259413841,3.00012
1323259473841,3.01683
1323259533841,2.99978
1323259593841,3.00287
1323259653841,3.01721
1323259713841,3.01446
1323259773841,3.01222
1323259833841,3.00990
1323259893841,3.02618
1323259953841,3.00399
1323260013841,3.00840
1323260073841,3.01655
1323260133841,3.00796
1323260193841,3.01908
1323260253841,2.99699
1323260313841,3.01336
1323260373841,3.00817
1323260433841,3.00804
1323260493841,3.01697
1323260553841,3.01785
1323260613841,3.00819
1323260673841,3.01568
1323260733841,3.03077
1323260793841,3.00323
1323260853841,3.01362
1323260913841,3.01293
1323260973841,3.00557
1323261033841,3.01579
1323261093841,2.98765
1323261153841,3.01601
1323261213841,3.00830
1323261273841,3.02619
1323261333841,3.01186
1323261393841,2.99941
1323261453841,3.02745
1323261513841,3.01531
1323261573841,3.04033
1323261633841,3.01985
1323261693841,3.00936
1323261753841,2.99924
1323261813841,3.01514
1323261873841,3.01013
1323261933841,2.99832
1323261993841,3.04037
1323262053841,3.00193
1323262113841,2.96692
1323262173841,3.01477
1323262233841,2.99435
1323262293841,2.99154
1323262353841,2.99198
1323262413841,3.00712
1323262473841,3.00369
1323262533841,3.01061
1323262593841,3.01472
1323262653841,3.00084
1323262713841,2.98549
1323262773841,2.97899
1323262833865,3.00783
1323262893865,2.99155
1323262953865,2.99674
1323263013865,2.99945
1323263073865,2.98063
1323263133865,2.98711
1323263193865,2.98904
1323263253865,2.99774
1323263313865,2.98642
1323263373865,2.98082
1323263433865,2.98337
1323263493865,2.99331
1323263553865,2.98964
1323263613865,3.07903
1323263673865,2.99166
1323263733865,2.99857
1323263793865,2.96577
1323263853865,2.99824
1323263913865,2.99440
1323263973865,3.01066
1323264033865,2.99285
1323264093865,3.00201
1323264153865,3.00883
1323264213865,3.00021
1323264273865,2.98379
1323264333865,2.97375
1323264393865,2.97290
1323264453865,2.99026
1323264513865,2.99387
1323264573865,2.96760
1323264633865,2.97568
1323264693865,2.97316
1323264753865,2.98103
1323264813865,2.97312
1323264873865,2.96625
1323264933865,2.97493
1323264993865,2.98350
1323265053865,2.96552
1323265113865,2.97998
1323265173865,2.98913
1323265233865,2.98780
1323265293865,2.99711
1323265353865,2.99153
1323265413865,2.97397
1323265473865,2.96978
1323265533865,2.98132
1323265593865,2.97755
1323265653865,2.95820
1323265713865,2.98036
1323265773865,3.03001
1323265833865,2.96562
1323265893865,2.97931
1323265953865,2.97254
1323266013865,2.97600
1323266073865,2.96234
1323266133865,2.98177
1323266193865,2.94804
1323266253865,2.95894
1323266313865,2.98222
1323266373865,2.94019
1323266433877,2.96383
1323266493877,2.95899
1323266553877,2.94736
1323266613877,2.96537
1323266673877,2.98255
1323266733877,2.96012
1323266793877,2.97958
1323266853877,2.97867
1323266913877,2.94439
1323266973877,2.96654
1323267033877,2.99743
1323267093877,2.96484
1323267153877,2.97507
1323267213877,2.99202
1323267273877,2.98473
1323267333877,2.96048
1323267393877,2.98176
1323267453877,2.94490
1323267513877,2.97287
1323267573877,2.97056
1323267633877,2.96718
1323267693877,2.97517
1323267753877,2.97355
1323267813877,2.98031
1323267873877,2.98407
1323267933877,2.99407
1323267993877,2.97732
1323268053877,2.98773
1323268113877,2.95909
1323268173877,2.96409
1323268233877,2.97743
1323268293877,2.97871
1323268353877,2.98524
1323268413877,2.96712
1323268473877,2.99769
1323268533877,2.87805
1323268593877,2.97528
1323268653877,2.96342
1323268713877,2.96805
1323268773877,2.97794
1323268833877,2.98865
1323268893877,2.96441
1323268953877,2.96717
1323269013877,2.97150
1323269073877,2.98257
1323269133877,3.00650
1323269193877,2.96588
1323269253877,2.98425
1323269313877,2.95600
1323269373877,2.97561
1323269433877,2.99273
1323269493877,2.96129
1323269553877,2.96016
1323269613877,2.97290
1323269673877,2.96779
1323269733877,2.98226
1323269793877,2.97519
1323269853877,2.98213
1323269913877,2.95680
1323269973877,2.99148
1323270033889,2.98766
1323270093889,2.97528
1323270153889,2.98435
1323270213889,2.99784
1323270273889,2.98063
1323270333889,2.96405
1323270393889,2.96764
1323270453889,2.97441
1323270513889,2.94346
1323270573889,2.95994
1323270633889,2.98550
1323270693889,2.98025
1323270753889,2.96344
1323270813889,2.97441
1323270873889,2.95516
1323270933889,2.97083
1323270993889,2.95683
1323271053889,2.97666
1323271113889,2.97620
1323271173889,2.97927
1323271233889,2.99250
1323271293889,2.96901
1323271353889,2.96764
1323271413889,2.99118
1323271473889,2.97059
1323271533889,2.99981
1323271593889,2.97360
1323271653889,2.96794
1323271713889,2.98424
1323271773889,2.97728
1323271833889,2.98544
1323271893889,2.98168
1323271953889,2.98894
1323272013889,2.98306
1323272073889,2.97401
1323272133889,2.97716
1323272193889,2.98120
1323272253889,3.01338
1323272313889,2.98695
1323272373889,3.01111
1323272433889,3.01284
1323272493889,2.98750
1323272553889,2.99566
1323272613889,3.01134
1323272673889,2.98602
1323272733889,3.00524
1323272793889,2.98878
1323272853889,3.00728
1323272913889,3.02404
1323272973889,2.99748
1323273033889,2.98521
1323273093889,3.01637
1323273153889,3.00120
1323273213889,3.02641
1323273273889,2.99375
1323273333889,2.99725
1323273393889,2.97448
1323273453889,2.98611
1323273513889,2.98608
1323273573889,3.00735
1323273633901,3.00130
1323273693901,3.00559
1323273753901,2.98855
1323273813901,2.99604
1323273873901,2.99746
1323273933901,3.00435
1323273993901,2.91872
1323274053901,3.01106
1323274113901,2.99225
1323274173901,3.00744
1323274233901,3.01423
1323274293901,2.99646
1323274353901,2.98592
1323274413901,2.99238
1323274473901,2.99633
1323274533901,3.00280
1323274593901,3.03555
1323274653901,3.02080
1323274713901,3.01055
1323274773901,2.99826
1323274833901,3.00544
1323274893901,3.00670
1323274953901,3.02233
1323275013901,2.99805
1323275073901,3.01969
1323275133901,3.01978
1323275193901,3.01103
1323275253901,3.03095
1323275313901,3.00372
1323275373901,3.00048
1323275433901,3.02326
1323275493901,3.00241
1323275553901,3.02687
1323275613901,3.01428
1323275673901,3.01379
1323275733901,3.01904
1323275793901,2.99105
1323275853901,3.01034
1323275913901,2.99228
1323275973901,3.01187
1323276033901,3.00609
1323276093901,2.99753
1323276153901,3.01717
1323276213901,3.00528
1323276273901,3.00089
1323276333901,2.99300
1323276393901,3.12169
1323276453901,2.98951
1323276513901,2.99474
1323276573901,3.00884
1323276633901,3.00081
1323276693901,3.01302
1323276753901,2.99677
1323276813901,3.00722
1323276873901,3.00822
1323276933901,3.00177
1323276993901,2.98453
1323277053901,3.00929
1323277113901,2.98941
1323277173901,3.00744
1323277233913,2.99192
1323277293913,2.98254
1323277353913,2.98485
1323277413913,3.00669
1323277473913,2.95596
1323277533913,2.99070
1323277593913,2.98243
1323277653913,2.99065
1323277713913,2.98441
1323277773913,2.98305
1323277833913,2.97803
1323277893913,2.84932
1323278433913,2.97598
1323278493913,2.88949
1323278553913,2.95938
1323278613913,2.97557
1323278673913,2.98387
1323278733913,2.96035
1323278793913,2.97739
1323278853913,2.96307
1323278913913,2.95533
1323278973913,2.97770
1323279033913,2.96354
1323279093913,2.96077
1323279153913,2.96697
1323279213913,2.94785
1323279273913,2.97465
1323279333913,2.94992
1323279393913,2.96098
1323279453913,2.95667
1323279513913,2.95929
1323279573913,2.94478
1323279633913,2.96063
1323279693913,2.95360
1323279753913,2.93377
1323279813913,2.94198
1323279873913,2.95331
1323279933913,2.96688
1323279993913,2.95329
1323280053913,2.94959
1323280113913,2.96041
1323280173913,2.95480
1323280233913,2.94690
1323280293913,2.96565
1323280353913,2.94815
1323280413913,2.94207
1323280473913,2.94573
1323280533913,2.96768
1323280593913,2.94741
1323280653913,2.95335
1323280713913,2.95241
1323280773913,2.93581
1323280833925,2.94827
1323280893925,2.94177
1323280953925,2.94222
1323281013925,2.94136
1323281073925,2.94745
1323281133925,2.93438
1323281193925,2.93467
1323281253925,2.93735
1323281313925,2.95208
1323281373925,2.94300
1323281433925,2.93696
1323282333925,2.76218
1323282393925,2.93823
1323282453925,2.94364
1323282513925,2.93681
1323282573925,2.95964
1323282633925,2.94191
1323282693925,2.95314